User: anonymous   Login
Location: Maddington
(51.2000°N, 1.9167°W)
Time: 11:38:14
(UTC+00:00)
Language:

NOSS 3-1 (A) - Orbit

View from above orbital plane
View from above orbital plane
View from above satellite
View from above satellite

Ground track
Ground track

The orbit data is extracted from the following two-line orbital elements,

1 26905U 01040A   21121.87127883 0.00000000  00000-0  00000-0 0    01
2 26905  63.4042  16.7268 0498700   1.7749 358.2251 13.40794720    02
Epoch (UTC): 01 May 2021 20:54:38
Eccentricity: 0.0498700
inclination: 63.4042°
perigee height: 733 km
apogee height: 1479 km
right ascension of ascending node: 16.7268°
argument of perigee: 1.7749°
revolutions per day: 13.40794720
mean anomaly at epoch: 358.2251°
orbit number at epoch: 0

The dashed part of the orbit path shows where the satellite is in the earth's shadow,  

DLR